Location: Esp�n
(42.4593°N, 0.2047°W)
Time: 10:10:54
(UTC+00:00)

IDEFIX/ARIANE 42P - Pass Details

Date: 07 June 2020
Orbit: 785 x 803 km, 98.4° (Epoch: 10 July)

Event Time Altitude Azimuth Distance (km) Brightness Sun altitude
Rises 02:47:44 0° 19° (NNE) 3,321 7.2 -14.1°
Reaches altitude 10° 02:50:12 10° 26° (NNE) 2,384 6.4 -13.8°
Maximum altitude 02:55:13 44° 98° (E) 1,102 3.6 -13.2°
Drops below altitude 10° 03:00:11 10° 170° (S) 2,358 4.7 -12.6°
Enters shadow 03:01:27 - 174° (S) 2,837 5.1 -12.5°
